Weather History for KBAX - October, 2012

Change the Weather History Date:

Tuesday, October 9, 2012

  Actual Average (KP58) Record (KP58)
Temperature  
Mean Temperature 51 °F -  
Max Temperature 61 °F 61 °F 80 °F (2000)
Min Temperature 41 °F 45 °F 39 °F (2014)
Degree Days  
Heating Degree Days 14    
Growing Degree Days 1 (Base 50)    
Moisture  
Dew Point 33 °F    
Average Humidity 51    
Maximum Humidity 65    
Minimum Humidity 35    
Precipitation  
Precipitation 0.00 in - - ()
Sea Level Pressure  
Sea Level Pressure 29.95 in    
Wind  
Wind Speed 14 mph (South)    
Max Wind Speed 24 mph    
Max Gust Speed 31 mph    
Visibility 10 miles    
Events      
Averages and records for this station are not official NWS values.
T = Trace of Precipitation, MM = Missing Value Source: NWS Daily Summary

Daily Weather History Graph

Daily Weather History Graph

Search for Another Location

Airport or City:

Trip Planner

Search our weather history database for the weather conditions in past years. The results will help you decide how hot, cold, wet, or windy it might be!

Date:

Astronomy

Oct. 09, 2012 Rise Set
Actual Time 7:39 AM EDT 6:57 PM EDT
Civil Twilight 7:10 AM EDT 7:26 PM EDT
Nautical Twilight 6:37 AM EDT 7:59 PM EDT
Astronomical Twilight 6:04 AM EDT 8:33 PM EDT
Moon 1:03 AM EDT (10/9) 3:34 PM EDT (10/9)
Length of Visible Light 12h 15m
Length of Day
11h 18m
Last Quarter, 37% of the Moon is Illuminated
Oct 9
Last Quarter
Oct 15
New
Oct 21
First Quarter
Oct 29
Full
Nov 6
Last Quarter

Hourly Weather History & Observations

Time (EDT) Temp. Windchill Dew Point Humidity Pressure Visibility Wind Dir Wind Speed Gust Speed Precip Events Conditions
12:34 AM 42.1 °F 36.1 °F 30.0 °F 62% 30.09 in 10.0 mi South 10.4 mph - N/A   Clear
12:54 AM 41.7 °F 35.6 °F 30.2 °F 64% 30.08 in 10.0 mi South 10.4 mph 16.1 mph N/A   Clear
1:13 AM 42.1 °F 35.7 °F 30.0 °F 62% 30.08 in 10.0 mi South 11.5 mph - N/A   Clear
1:34 AM 42.8 °F 36.2 °F 30.0 °F 61% 30.07 in 10.0 mi South 12.7 mph - N/A   Clear
1:54 AM 42.8 °F 36.6 °F 30.2 °F 61% 30.07 in 10.0 mi South 11.5 mph - N/A   Clear
2:13 AM 42.4 °F 35.7 °F 30.2 °F 62% 30.08 in 10.0 mi South 12.7 mph - N/A   Clear
2:53 AM 42.3 °F 35.9 °F 30.2 °F 62% 30.07 in 10.0 mi South 11.5 mph - N/A   Clear
3:13 AM 42.1 °F 35.7 °F 30.2 °F 63% 30.06 in 10.0 mi South 11.5 mph - N/A   Clear
3:53 AM 42.8 °F 36.2 °F 30.2 °F 61% 30.05 in 10.0 mi South 12.7 mph - N/A   Clear
4:14 AM 42.8 °F 36.2 °F 30.0 °F 61% 30.05 in 10.0 mi South 12.7 mph - N/A   Clear
4:34 AM 42.4 °F 36.1 °F 30.0 °F 61% 30.04 in 10.0 mi South 11.5 mph - N/A   Clear
4:53 AM 42.3 °F 36.3 °F 30.2 °F 62% 30.04 in 10.0 mi South 10.4 mph - N/A   Clear
5:14 AM 42.3 °F 36.3 °F 30.2 °F 62% 30.04 in 10.0 mi South 10.4 mph - N/A   Clear
5:34 AM 41.9 °F 35.4 °F 30.2 °F 63% 30.04 in 10.0 mi South 11.5 mph - N/A   Clear
5:53 AM 41.9 °F 35.4 °F 30.2 °F 63% 30.04 in 10.0 mi South 11.5 mph - N/A   Clear
6:14 AM 41.5 °F 35.0 °F 30.2 °F 64% 30.04 in 10.0 mi South 11.5 mph - N/A   Clear
6:34 AM 41.9 °F 35.4 °F 30.2 °F 63% 30.04 in 10.0 mi South 11.5 mph - N/A   Clear
6:53 AM 42.8 °F 36.6 °F 30.2 °F 61% 30.04 in 10.0 mi South 11.5 mph - N/A   Clear
7:14 AM 42.8 °F 37.0 °F 30.2 °F 61% 30.04 in 10.0 mi SSW 10.4 mph - N/A   Clear
7:34 AM 42.8 °F 37.0 °F 30.4 °F 62% 30.04 in 10.0 mi South 10.4 mph - N/A   Clear
7:53 AM 42.8 °F 36.6 °F 30.7 °F 62% 30.03 in 10.0 mi South 11.5 mph - N/A   Clear
8:14 AM 42.8 °F 36.6 °F 31.1 °F 63% 30.03 in 10.0 mi South 11.5 mph - N/A   Clear
8:34 AM 42.4 °F 36.5 °F 31.3 °F 65% 30.02 in 10.0 mi South 10.4 mph - N/A   Clear
8:53 AM 44.8 °F 38.7 °F 31.8 °F 60% 30.02 in 10.0 mi South 12.7 mph - N/A   Clear
9:14 AM 46.0 °F 39.9 °F 32.0 °F 58% 30.03 in 10.0 mi South 13.8 mph - N/A   Clear
9:34 AM 47.7 °F - 32.0 °F 55% 30.03 in 10.0 mi South 16.1 mph - N/A   Clear
9:53 AM 48.9 °F - 32.2 °F 52% 30.02 in 10.0 mi SSW 13.8 mph 21.9 mph N/A   Clear
10:14 AM 51.1 °F - 32.5 °F 49% 30.01 in 10.0 mi SSW 17.3 mph 23.0 mph N/A   Clear
10:34 AM 52.5 °F - 32.5 °F 47% 30.01 in 10.0 mi SSW 19.6 mph 24.2 mph N/A   Clear
10:54 AM 53.2 °F - 32.9 °F 46% 30.01 in 10.0 mi SSW 15.0 mph 23.0 mph N/A   Clear
11:14 AM 54.7 °F - 33.4 °F 45% 29.99 in 10.0 mi SSW 17.3 mph 24.2 mph N/A   Clear
11:34 AM 56.1 °F - 33.8 °F 43% 29.98 in 10.0 mi SSW 18.4 mph 27.6 mph N/A   Clear
11:54 AM 57.2 °F - 33.6 °F 41% 29.98 in 10.0 mi South 20.7 mph 26.5 mph N/A   Clear
12:14 PM 57.9 °F - 33.6 °F 40% 29.97 in 10.0 mi SSW 19.6 mph 27.6 mph N/A   Clear
12:34 PM 59.0 °F - 34.3 °F 40% 29.97 in 10.0 mi South 15.0 mph 23.0 mph N/A   Clear
12:54 PM 59.7 °F - 34.5 °F 39% 29.95 in 10.0 mi South 24.2 mph 31.1 mph N/A   Clear
1:14 PM 60.3 °F - 34.2 °F 38% 29.95 in 10.0 mi SSW 19.6 mph 27.6 mph N/A   Scattered Clouds
1:33 PM 60.4 °F - 34.2 °F 37% 29.93 in 10.0 mi SSW 17.3 mph 24.2 mph N/A   Scattered Clouds
1:54 PM 60.4 °F - 34.3 °F 38% 29.92 in 10.0 mi South 20.7 mph 27.6 mph N/A   Mostly Cloudy
2:14 PM 61.5 °F - 34.0 °F 36% 29.91 in 10.0 mi South 21.9 mph 28.8 mph N/A   Mostly Cloudy
2:33 PM 61.3 °F - 33.4 °F 35% 29.90 in 10.0 mi South 19.6 mph 27.6 mph N/A   Mostly Cloudy
2:54 PM 61.7 °F - 33.4 °F 35% 29.89 in 10.0 mi South 20.7 mph 26.5 mph N/A   Scattered Clouds
3:14 PM 60.8 °F - 33.6 °F 36% 29.88 in 10.0 mi South 19.6 mph 26.5 mph N/A   Clear
3:33 PM 61.5 °F - 34.2 °F 36% 29.88 in 10.0 mi South 19.6 mph 24.2 mph N/A   Clear
3:54 PM 61.0 °F - 33.8 °F 36% 29.87 in 10.0 mi SSW 16.1 mph 26.5 mph N/A   Clear
4:14 PM 61.0 °F - 34.0 °F 36% 29.87 in 10.0 mi South 23.0 mph 28.8 mph N/A   Clear
4:34 PM 61.0 °F - 34.0 °F 36% 29.86 in 10.0 mi South 18.4 mph 24.2 mph N/A   Clear
4:54 PM 59.9 °F - 33.8 °F 38% 29.86 in 10.0 mi South 21.9 mph 28.8 mph N/A   Clear
5:14 PM 59.9 °F - 34.5 °F 39% 29.86 in 10.0 mi SSW 16.1 mph 21.9 mph N/A   Clear
5:34 PM 59.4 °F - 34.7 °F 40% 29.86 in 10.0 mi South 20.7 mph 26.5 mph N/A   Clear
5:54 PM 59.4 °F - 34.5 °F 39% 29.85 in 10.0 mi South 17.3 mph 24.2 mph N/A   Clear
6:14 PM 58.5 °F - 35.6 °F 42% 29.86 in 10.0 mi South 16.1 mph 25.3 mph N/A   Clear
6:34 PM 58.3 °F - 34.7 °F 41% 29.85 in 10.0 mi South 16.1 mph 24.2 mph N/A   Clear
6:54 PM 56.7 °F - 35.1 °F 44% 29.85 in 10.0 mi South 13.8 mph 19.6 mph N/A   Clear
7:14 PM 55.6 °F - 35.6 °F 47% 29.85 in 10.0 mi South 11.5 mph 17.3 mph N/A   Clear
7:34 PM 54.7 °F - 35.6 °F 49% 29.85 in 10.0 mi South 10.4 mph - N/A   Clear
7:54 PM 53.6 °F - 36.1 °F 52% 29.85 in 10.0 mi South 10.4 mph - N/A   Clear
8:14 PM 53.4 °F - 36.1 °F 52% 29.84 in 10.0 mi South 10.4 mph - N/A   Clear
8:34 PM 53.6 °F - 36.5 °F 52% 29.84 in 10.0 mi South 12.7 mph - N/A   Clear
8:54 PM 53.8 °F - 36.1 °F 51% 29.83 in 10.0 mi South 15.0 mph - N/A   Clear
9:15 PM 53.2 °F - 36.0 °F 52% 29.83 in 10.0 mi South 12.7 mph - N/A   Scattered Clouds
9:34 PM 53.6 °F - 35.6 °F 51% 29.83 in 10.0 mi South 13.8 mph 19.6 mph N/A   Clear
9:54 PM 54.0 °F - 35.6 °F 50% 29.83 in 10.0 mi South 16.1 mph 19.6 mph N/A   Clear
10:15 PM 53.6 °F - 35.6 °F 51% 29.82 in 10.0 mi South 15.0 mph 18.4 mph N/A   Clear
10:34 PM 53.2 °F - 35.6 °F 51% 29.81 in 10.0 mi South 15.0 mph 21.9 mph N/A   Clear
10:54 PM 52.9 °F - 35.8 °F 52% 29.80 in 10.0 mi South 16.1 mph 21.9 mph N/A   Scattered Clouds
11:14 PM 53.1 °F - 36.0 °F 52% 29.79 in 10.0 mi South 16.1 mph 24.2 mph N/A   Scattered Clouds
11:34 PM 52.9 °F - 36.1 °F 53% 29.78 in 10.0 mi South 15.0 mph 20.7 mph N/A   Clear
11:54 PM 52.9 °F - 36.5 °F 54% 29.77 in 10.0 mi South 15.0 mph 21.9 mph N/A   Clear